AVA015 LEMD-SKBO

Flight info

Callsign AVA015
Flight time N/A
Altitude 40000
Route BARDI3N BARDI DCT VIS DCT DIRMA DCT SOPOP DCT ERPES DCT
Aircraft A333/H-A1B1C1D1O1S0/L

Departure

Time N/A
Airport Adolfo Suárez Madrid–Barajas Airport (LEMD)

Arrival

Time 2026-05-01 14:25
Airport El Dorado International Airport (SKBO)
Time Latitude Longitude Altitude Speed Heading
2026-05-01 07:23 35.09053 -30.06513 34891 ft 435 kts 248°
2026-05-01 07:24 35.05109 -30.16482 34892 ft 434 kts 248°
2026-05-01 07:24 35.02470 -30.23133 34892 ft 435 kts 248°
2026-05-01 07:25 34.99847 -30.29733 34893 ft 436 kts 248°
2026-05-01 07:25 34.97191 -30.36401 34893 ft 436 kts 248°
2026-05-01 07:26 34.94534 -30.43057 34893 ft 436 kts 248°
2026-05-01 07:26 34.91866 -30.49728 34893 ft 437 kts 248°
2026-05-01 07:27 34.89216 -30.56341 34894 ft 437 kts 248°
2026-05-01 07:27 34.86542 -30.62999 34894 ft 437 kts 248°
2026-05-01 07:28 34.83865 -30.69653 34895 ft 437 kts 248°
2026-05-01 07:28 34.81205 -30.76252 34895 ft 437 kts 248°
2026-05-01 07:29 34.78517 -30.82904 34896 ft 437 kts 248°
2026-05-01 07:29 34.75833 -30.89535 34896 ft 437 kts 248°
2026-05-01 07:30 34.73142 -30.96172 34897 ft 437 kts 248°
2026-05-01 07:30 34.70446 -31.02805 34897 ft 438 kts 248°
2026-05-01 07:31 34.67746 -31.09436 34897 ft 438 kts 248°
2026-05-01 07:32 34.60991 -31.25968 34898 ft 438 kts 248°
2026-05-01 07:33 34.56915 -31.35904 34899 ft 438 kts 248°
2026-05-01 07:33 34.52836 -31.45816 34900 ft 437 kts 248°
2026-05-01 07:34 34.48752 -31.55715 34901 ft 438 kts 248°
2026-05-01 07:35 34.46020 -31.62321 34901 ft 438 kts 248°
2026-05-01 07:35 34.43299 -31.68884 34902 ft 438 kts 248°
2026-05-01 07:36 34.40568 -31.75462 34902 ft 437 kts 247°
2026-05-01 07:36 34.37838 -31.82023 34902 ft 436 kts 247°
2026-05-01 07:37 34.33733 -31.91866 34903 ft 436 kts 247°
2026-05-01 07:37 34.30997 -31.98409 34904 ft 436 kts 247°
2026-05-01 07:38 34.28251 -32.04964 34904 ft 436 kts 247°
2026-05-01 07:39 34.24133 -32.14772 34907 ft 436 kts 247°
2026-05-01 07:39 34.20009 -32.24566 34912 ft 436 kts 247°
2026-05-01 07:40 34.17266 -32.31067 34913 ft 437 kts 247°
2026-05-01 07:40 34.14498 -32.37610 34914 ft 438 kts 247°
2026-05-01 07:41 34.11720 -32.44166 34914 ft 438 kts 247°
2026-05-01 07:42 34.07542 -32.54003 34915 ft 439 kts 247°
2026-05-01 07:42 34.04750 -32.60559 34916 ft 439 kts 247°
2026-05-01 07:43 34.01971 -32.67076 34918 ft 440 kts 247°
2026-05-01 07:43 33.97765 -32.76918 34917 ft 439 kts 247°
2026-05-01 07:44 33.92165 -32.89965 34918 ft 438 kts 247°
2026-05-01 07:45 33.89363 -32.96479 34919 ft 438 kts 247°
2026-05-01 07:45 33.86571 -33.02957 34920 ft 439 kts 247°
2026-05-01 07:46 33.83747 -33.09497 34920 ft 439 kts 247°
2026-05-01 07:47 33.79521 -33.19260 34921 ft 441 kts 247°
2026-05-01 07:47 33.76683 -33.25800 34923 ft 441 kts 247°
2026-05-01 07:48 33.72415 -33.35615 34923 ft 442 kts 247°
2026-05-01 07:48 33.69566 -33.42150 34924 ft 442 kts 247°
2026-05-01 07:49 33.65280 -33.51963 34924 ft 442 kts 247°
2026-05-01 07:50 33.62434 -33.58459 34925 ft 442 kts 247°
2026-05-01 07:50 33.58128 -33.68270 34926 ft 442 kts 247°
2026-05-01 07:51 33.55259 -33.74790 34927 ft 443 kts 247°
2026-05-01 07:52 33.50939 -33.84586 34928 ft 443 kts 247°
2026-05-01 07:52 33.48056 -33.91108 34929 ft 443 kts 247°
2026-05-01 07:53 33.43731 -34.00872 34930 ft 443 kts 247°
2026-05-01 07:53 33.40836 -34.07391 34930 ft 443 kts 247°
2026-05-01 07:55 33.33597 -34.23638 34932 ft 444 kts 246°
2026-05-01 07:56 33.26298 -34.39804 34934 ft 442 kts 246°
2026-05-01 07:57 33.21925 -34.49511 34935 ft 442 kts 246°
2026-05-01 07:58 33.16090 -34.62452 34936 ft 443 kts 246°
2026-05-01 07:59 33.10255 -34.75348 34937 ft 443 kts 246°
2026-05-01 08:00 33.01557 -34.94765 34940 ft 439 kts 251°
2026-05-01 08:01 32.96351 -35.03861 34941 ft 457 kts 228°
2026-05-01 08:01 32.93992 -35.06401 34942 ft 457 kts 228°
2026-05-01 08:02 32.86912 -35.14014 34942 ft 457 kts 228°
2026-05-01 08:03 32.79864 -35.21569 34943 ft 456 kts 228°
2026-05-01 08:03 32.72783 -35.29154 34993 ft 460 kts 227°
2026-05-01 08:04 32.63172 -35.39406 35001 ft 465 kts 227°
2026-05-01 08:05 32.55974 -35.47059 35001 ft 464 kts 227°
2026-05-01 08:06 32.49569 -35.53854 35001 ft 463 kts 227°
2026-05-01 08:07 32.39944 -35.64037 35002 ft 463 kts 227°
2026-05-01 08:08 32.32722 -35.71658 35003 ft 464 kts 227°
2026-05-01 08:09 32.23105 -35.81776 35004 ft 463 kts 227°
2026-05-01 08:09 32.18289 -35.86833 35007 ft 463 kts 227°
2026-05-01 08:10 32.08644 -35.96936 35010 ft 463 kts 227°
2026-05-01 08:11 31.99016 -36.06991 35010 ft 463 kts 227°
2026-05-01 08:12 31.91764 -36.14545 35011 ft 463 kts 227°
2026-05-01 08:13 31.84514 -36.22081 35012 ft 463 kts 227°
2026-05-01 08:13 31.77269 -36.29594 35012 ft 464 kts 227°
2026-05-01 08:14 31.72446 -36.34586 35013 ft 464 kts 227°
2026-05-01 08:14 31.67602 -36.39594 35012 ft 464 kts 227°
2026-05-01 08:15 31.60322 -36.47105 35014 ft 465 kts 227°
2026-05-01 08:16 31.55449 -36.52124 35014 ft 466 kts 226°
2026-05-01 08:16 31.50569 -36.57142 35014 ft 466 kts 226°
2026-05-01 08:17 31.45691 -36.62151 35015 ft 466 kts 226°
2026-05-01 08:17 31.40797 -36.67169 35015 ft 467 kts 226°
2026-05-01 08:18 31.35936 -36.72148 35015 ft 467 kts 226°
2026-05-01 08:19 31.26127 -36.82168 35016 ft 468 kts 226°
2026-05-01 08:19 31.21255 -36.87135 35016 ft 468 kts 226°
2026-05-01 08:20 31.16338 -36.92141 35017 ft 468 kts 226°
2026-05-01 08:20 31.11428 -36.97132 35017 ft 468 kts 226°
2026-05-01 08:21 31.06515 -37.02119 35018 ft 468 kts 226°
2026-05-01 08:21 31.01587 -37.07115 35021 ft 468 kts 226°
2026-05-01 08:22 30.96660 -37.12102 35018 ft 469 kts 225°
2026-05-01 08:22 30.91767 -37.17048 35019 ft 469 kts 225°
2026-05-01 08:23 30.86830 -37.22031 35019 ft 469 kts 225°
2026-05-01 08:23 30.81930 -37.26969 35019 ft 469 kts 225°
2026-05-01 08:24 30.76984 -37.31947 35019 ft 469 kts 225°
2026-05-01 08:24 30.72041 -37.36915 35020 ft 469 kts 225°
2026-05-01 08:25 30.67103 -37.41872 35020 ft 470 kts 225°
2026-05-01 08:25 30.62148 -37.46838 35021 ft 470 kts 225°
2026-05-01 08:26 30.57198 -37.51791 35021 ft 469 kts 225°
2026-05-01 08:26 30.52260 -37.56726 35021 ft 469 kts 225°
2026-05-01 08:27 30.47303 -37.61674 35021 ft 470 kts 225°
2026-05-01 08:27 30.42372 -37.66588 35022 ft 470 kts 225°
2026-05-01 08:28 30.37415 -37.71521 35022 ft 470 kts 225°
2026-05-01 08:28 30.32471 -37.76434 35023 ft 470 kts 224°
2026-05-01 08:29 30.27494 -37.81374 35022 ft 470 kts 224°
2026-05-01 08:29 30.22528 -37.86295 35023 ft 470 kts 224°
2026-05-01 08:30 30.17557 -37.91216 35023 ft 470 kts 224°
2026-05-01 08:30 30.12618 -37.96097 35023 ft 469 kts 224°
2026-05-01 08:31 30.07648 -38.01002 35024 ft 469 kts 224°
2026-05-01 08:31 30.02689 -38.05890 35024 ft 469 kts 224°
2026-05-01 08:32 29.97721 -38.10780 35024 ft 469 kts 224°
2026-05-01 08:32 29.92735 -38.15680 35025 ft 469 kts 224°
2026-05-01 08:33 29.87754 -38.20571 35025 ft 470 kts 224°
2026-05-01 08:33 29.82816 -38.25411 35025 ft 470 kts 224°
2026-05-01 08:34 29.77840 -38.30282 35025 ft 469 kts 224°
2026-05-01 08:34 29.72866 -38.35145 35025 ft 469 kts 224°
2026-05-01 08:35 29.67884 -38.40008 35026 ft 469 kts 224°
2026-05-01 08:35 29.62945 -38.44824 35026 ft 468 kts 224°
2026-05-01 08:36 29.57972 -38.49666 35026 ft 468 kts 224°
2026-05-01 08:36 29.53004 -38.54496 35020 ft 468 kts 224°
2026-05-01 08:37 29.48040 -38.59318 35030 ft 467 kts 224°
2026-05-01 08:37 29.43076 -38.64131 35027 ft 466 kts 224°
2026-05-01 08:38 29.38119 -38.68932 35027 ft 466 kts 224°
2026-05-01 08:38 29.33170 -38.73718 35027 ft 466 kts 224°
2026-05-01 08:39 29.28220 -38.78501 35027 ft 465 kts 224°
2026-05-01 08:39 29.23260 -38.83285 35028 ft 465 kts 224°
2026-05-01 08:40 29.15851 -38.90420 35028 ft 465 kts 224°
2026-05-01 08:40 29.10895 -38.95186 35028 ft 464 kts 224°
2026-05-01 08:41 29.05945 -38.99939 35028 ft 464 kts 224°
2026-05-01 08:41 29.01030 -39.04652 35029 ft 464 kts 224°
2026-05-01 08:42 28.96094 -39.09380 35029 ft 463 kts 224°
2026-05-01 08:42 28.91141 -39.14118 35029 ft 463 kts 225°
2026-05-01 08:43 28.86202 -39.18836 35029 ft 463 kts 225°
2026-05-01 08:43 28.81258 -39.23554 35029 ft 463 kts 225°
2026-05-01 08:44 28.76328 -39.28251 35030 ft 462 kts 225°
2026-05-01 08:44 28.71413 -39.32929 35029 ft 462 kts 225°
2026-05-01 08:45 28.66488 -39.37610 35030 ft 462 kts 225°
2026-05-01 08:45 28.61540 -39.42307 35030 ft 462 kts 225°
2026-05-01 08:46 28.56637 -39.46954 35030 ft 462 kts 225°
2026-05-01 08:46 28.51700 -39.51629 35030 ft 461 kts 225°
2026-05-01 08:47 28.46750 -39.56310 35030 ft 461 kts 225°
2026-05-01 08:47 28.41822 -39.60964 35030 ft 460 kts 225°
2026-05-01 08:48 28.36887 -39.65620 35031 ft 460 kts 225°
2026-05-01 08:48 28.31994 -39.70229 35031 ft 459 kts 225°
2026-05-01 08:49 28.27081 -39.74853 35031 ft 459 kts 225°
2026-05-01 08:49 28.22156 -39.79481 35031 ft 459 kts 225°
2026-05-01 08:50 28.17245 -39.84091 35031 ft 459 kts 225°
2026-05-01 08:50 28.12330 -39.88698 35034 ft 459 kts 225°
2026-05-01 08:51 28.07412 -39.93302 35040 ft 458 kts 225°
2026-05-01 08:51 28.02590 -39.98027 35032 ft 454 kts 231°
2026-05-01 08:52 27.98578 -40.03407 35032 ft 446 kts 240°
2026-05-01 08:52 27.95150 -40.09258 35032 ft 445 kts 242°
2026-05-01 08:53 27.92427 -40.14181 35032 ft 444 kts 243°
2026-05-01 08:53 27.89195 -40.20130 35036 ft 444 kts 243°
2026-05-01 08:54 27.85964 -40.26100 35033 ft 444 kts 243°
2026-05-01 08:54 27.82742 -40.32056 35032 ft 444 kts 243°
2026-05-01 08:55 27.79519 -40.38012 35032 ft 444 kts 243°
2026-05-01 08:55 27.76296 -40.43963 35034 ft 444 kts 243°
2026-05-01 08:56 27.73071 -40.49912 35033 ft 444 kts 243°
2026-05-01 08:56 27.69848 -40.55849 35036 ft 444 kts 243°
2026-05-01 08:57 27.66634 -40.61761 35072 ft 444 kts 243°
2026-05-01 08:57 27.63390 -40.67722 35034 ft 445 kts 243°
2026-05-01 08:58 27.60139 -40.73684 35033 ft 445 kts 243°
2026-05-01 08:58 27.56895 -40.79625 35040 ft 445 kts 243°
2026-05-01 08:59 27.53637 -40.85581 35036 ft 445 kts 243°
2026-05-01 08:59 27.50412 -40.91471 35028 ft 445 kts 243°
2026-05-01 09:00 27.47143 -40.97433 35033 ft 445 kts 242°
2026-05-01 09:00 27.43883 -41.03371 35039 ft 446 kts 242°
2026-05-01 09:01 27.40620 -41.09304 35033 ft 446 kts 242°
2026-05-01 09:01 27.37371 -41.15205 35037 ft 446 kts 242°
2026-05-01 09:02 27.34095 -41.21145 35032 ft 446 kts 242°
2026-05-01 09:02 27.30821 -41.27075 35023 ft 446 kts 242°
2026-05-01 09:03 27.27546 -41.32998 35039 ft 446 kts 242°
2026-05-01 09:03 27.24290 -41.38877 35036 ft 446 kts 242°
2026-05-01 09:04 27.20998 -41.44815 35037 ft 447 kts 242°
2026-05-01 09:04 27.17709 -41.50740 35034 ft 447 kts 242°
2026-05-01 09:05 27.14417 -41.56661 35045 ft 446 kts 242°
2026-05-01 09:05 27.11123 -41.62577 35045 ft 447 kts 242°
2026-05-01 09:06 27.07845 -41.68457 35037 ft 447 kts 242°
2026-05-01 09:06 27.04544 -41.74371 35035 ft 447 kts 242°
2026-05-01 09:07 27.01242 -41.80279 35046 ft 447 kts 241°
2026-05-01 09:07 26.97954 -41.86151 35042 ft 447 kts 241°
2026-05-01 09:08 26.94644 -41.92058 35050 ft 448 kts 241°
2026-05-01 09:08 26.91320 -41.97980 35036 ft 448 kts 241°
2026-05-01 09:09 26.87996 -42.03900 35048 ft 449 kts 241°
2026-05-01 09:09 26.84659 -42.09827 35028 ft 450 kts 240°
2026-05-01 09:10 26.81328 -42.15739 35029 ft 450 kts 240°
2026-05-01 09:10 26.77984 -42.21665 35027 ft 451 kts 240°
2026-05-01 09:11 26.74629 -42.27603 35026 ft 451 kts 240°
2026-05-01 09:11 26.71272 -42.33536 35027 ft 451 kts 240°
2026-05-01 09:12 26.67918 -42.39455 35029 ft 451 kts 240°
2026-05-01 09:12 26.64571 -42.45357 35029 ft 451 kts 240°
2026-05-01 09:13 26.61204 -42.51285 35026 ft 451 kts 240°
2026-05-01 09:13 26.57826 -42.57224 35027 ft 451 kts 240°
2026-05-01 09:14 26.54479 -42.63100 35028 ft 451 kts 240°
2026-05-01 09:14 26.51103 -42.69020 35018 ft 452 kts 240°
2026-05-01 09:15 26.47719 -42.74945 35040 ft 452 kts 240°
2026-05-01 09:15 26.44331 -42.80872 35024 ft 453 kts 240°
2026-05-01 09:16 26.40940 -42.86794 35042 ft 452 kts 240°
2026-05-01 09:17 26.35847 -42.95676 35031 ft 453 kts 239°
2026-05-01 09:17 26.30733 -43.04576 35029 ft 454 kts 239°
2026-05-01 09:18 26.25634 -43.13431 35034 ft 455 kts 239°
2026-05-01 09:19 26.20500 -43.22331 35042 ft 455 kts 239°
2026-05-01 09:20 26.15345 -43.31252 35036 ft 456 kts 239°
2026-05-01 09:21 26.08473 -43.43113 35030 ft 457 kts 239°
2026-05-01 09:21 26.03300 -43.52023 35045 ft 457 kts 239°
2026-05-01 09:22 25.96402 -43.63877 35031 ft 459 kts 238°
2026-05-01 09:23 25.91184 -43.72823 35032 ft 459 kts 238°
2026-05-01 09:24 25.85967 -43.81750 35032 ft 459 kts 238°
2026-05-01 09:25 25.79018 -43.93613 35034 ft 459 kts 238°
2026-05-01 09:26 25.73802 -44.02499 35033 ft 459 kts 238°
2026-05-01 09:26 25.68574 -44.11388 35032 ft 458 kts 238°
2026-05-01 09:27 25.63337 -44.20275 35033 ft 458 kts 238°
2026-05-01 09:28 25.59873 -44.26145 35029 ft 459 kts 238°
2026-05-01 09:28 25.56375 -44.32064 35052 ft 459 kts 238°
2026-05-01 09:29 25.51113 -44.40954 35034 ft 459 kts 238°
2026-05-01 09:30 25.45864 -44.49806 35033 ft 459 kts 238°
2026-05-01 09:30 25.40618 -44.58634 35028 ft 459 kts 238°
2026-05-01 09:31 25.37079 -44.64583 35034 ft 460 kts 238°
2026-05-01 09:32 25.31820 -44.73405 35034 ft 460 kts 238°
2026-05-01 09:32 25.26533 -44.82260 35034 ft 460 kts 238°
2026-05-01 09:33 25.23017 -44.88140 35034 ft 460 kts 238°
2026-05-01 09:34 25.17724 -44.96976 35034 ft 460 kts 238°
2026-05-01 09:34 25.12430 -45.05797 35036 ft 460 kts 237°
2026-05-01 09:35 25.07122 -45.14626 35036 ft 460 kts 237°
2026-05-01 09:36 25.03596 -45.20482 35035 ft 460 kts 237°
2026-05-01 09:36 25.00060 -45.26347 35035 ft 460 kts 237°
2026-05-01 09:37 24.96508 -45.32232 35035 ft 459 kts 238°
2026-05-01 09:37 24.91191 -45.41027 35035 ft 459 kts 238°
2026-05-01 09:38 24.85887 -45.49784 35035 ft 459 kts 238°
2026-05-01 09:39 24.80560 -45.58563 35036 ft 460 kts 238°
2026-05-01 09:39 24.76999 -45.64422 35039 ft 460 kts 238°
2026-05-01 09:40 24.71675 -45.73170 35039 ft 460 kts 238°
2026-05-01 09:41 24.68110 -45.79020 35036 ft 460 kts 238°
2026-05-01 09:41 24.62770 -45.87767 35036 ft 459 kts 238°
2026-05-01 09:42 24.59201 -45.93605 35036 ft 460 kts 238°
2026-05-01 09:43 24.52662 -46.04282 35044 ft 460 kts 238°
2026-05-01 09:43 24.49084 -46.10114 35037 ft 460 kts 238°
2026-05-01 09:44 24.43733 -46.18823 35038 ft 461 kts 238°
2026-05-01 09:45 24.40144 -46.24657 35036 ft 460 kts 238°
2026-05-01 09:45 24.34768 -46.33382 35037 ft 460 kts 238°
2026-05-01 09:46 24.31179 -46.39197 35037 ft 460 kts 237°
2026-05-01 09:46 24.27598 -46.44993 35036 ft 461 kts 237°
2026-05-01 09:47 24.24003 -46.50805 35037 ft 460 kts 237°
2026-05-01 09:47 24.20402 -46.56620 35037 ft 460 kts 237°
2026-05-01 09:48 24.16809 -46.62416 35036 ft 460 kts 237°
2026-05-01 09:48 24.13230 -46.68180 35037 ft 461 kts 237°
2026-05-01 09:49 24.09601 -46.74018 35037 ft 461 kts 237°
2026-05-01 09:49 24.06017 -46.79780 35037 ft 460 kts 237°
2026-05-01 09:50 24.02406 -46.85576 35037 ft 460 kts 237°
2026-05-01 09:50 23.98791 -46.91371 35037 ft 460 kts 237°
2026-05-01 09:51 23.95222 -46.97087 35036 ft 457 kts 237°
2026-05-01 09:51 23.91638 -47.02821 35037 ft 456 kts 237°
2026-05-01 09:52 23.88053 -47.08550 35037 ft 457 kts 237°
2026-05-01 09:52 23.84456 -47.14290 35037 ft 457 kts 237°
2026-05-01 09:53 23.80858 -47.20026 35037 ft 457 kts 237°
2026-05-01 09:53 23.77271 -47.25739 35037 ft 458 kts 237°
2026-05-01 09:54 23.73662 -47.31479 35037 ft 458 kts 237°
2026-05-01 09:54 23.70051 -47.37216 35037 ft 458 kts 237°
2026-05-01 09:55 23.66448 -47.42934 35037 ft 458 kts 237°
2026-05-01 09:55 23.62840 -47.48654 35037 ft 459 kts 237°
2026-05-01 09:56 23.59221 -47.54384 35037 ft 459 kts 237°
2026-05-01 09:56 23.55586 -47.60132 35037 ft 459 kts 237°
2026-05-01 09:57 23.51961 -47.65859 35037 ft 458 kts 237°
2026-05-01 09:57 23.48333 -47.71583 35037 ft 458 kts 237°
2026-05-01 09:58 23.44734 -47.77256 35037 ft 458 kts 237°
2026-05-01 09:58 23.41107 -47.82967 35037 ft 458 kts 237°
2026-05-01 09:59 23.37478 -47.88674 35037 ft 458 kts 237°
2026-05-01 09:59 23.33847 -47.94378 35037 ft 457 kts 237°
2026-05-01 10:00 23.30223 -48.00064 35036 ft 457 kts 237°
2026-05-01 10:00 23.26601 -48.05741 35036 ft 456 kts 237°
2026-05-01 10:01 23.22981 -48.11409 35036 ft 456 kts 237°
2026-05-01 10:01 23.19359 -48.17074 35036 ft 455 kts 237°
2026-05-01 10:02 23.15768 -48.22684 35036 ft 455 kts 237°
2026-05-01 10:02 23.12154 -48.28324 35036 ft 455 kts 237°
2026-05-01 10:03 23.08528 -48.33977 35036 ft 454 kts 237°
2026-05-01 10:03 23.04941 -48.39561 35040 ft 454 kts 237°
2026-05-01 10:04 23.01328 -48.45181 35058 ft 453 kts 237°
2026-05-01 10:04 22.97720 -48.50789 35042 ft 453 kts 237°
2026-05-01 10:05 22.94103 -48.56401 35041 ft 453 kts 237°
2026-05-01 10:05 22.90500 -48.61988 35040 ft 453 kts 237°
2026-05-01 10:06 22.86892 -48.67576 35040 ft 452 kts 237°
2026-05-01 10:06 22.83268 -48.73182 35040 ft 452 kts 237°
2026-05-01 10:07 22.79681 -48.78727 35040 ft 452 kts 237°
2026-05-01 10:07 22.76064 -48.84309 35040 ft 451 kts 237°
2026-05-01 10:08 22.70659 -48.92642 35061 ft 450 kts 237°
2026-05-01 10:09 22.67049 -48.98201 35037 ft 451 kts 237°
2026-05-01 10:09 22.63436 -49.03759 35023 ft 451 kts 237°
2026-05-01 10:10 22.59850 -49.09268 35019 ft 450 kts 237°
2026-05-01 10:10 22.54439 -49.17571 35019 ft 450 kts 237°
2026-05-01 10:11 22.50817 -49.23121 35019 ft 449 kts 237°
2026-05-01 10:11 22.47230 -49.28612 35019 ft 449 kts 237°
2026-05-01 10:12 22.44211 -49.33229 35011 ft 449 kts 237°
2026-05-01 10:13 22.38193 -49.42421 35019 ft 449 kts 237°
2026-05-01 10:13 22.34584 -49.47925 35018 ft 448 kts 237°
2026-05-01 10:14 22.29169 -49.56173 35018 ft 448 kts 237°
2026-05-01 10:14 22.25589 -49.61620 35018 ft 448 kts 237°
2026-05-01 10:15 22.21987 -49.67094 35017 ft 447 kts 237°
2026-05-01 10:15 22.18370 -49.72585 35017 ft 447 kts 237°
2026-05-01 10:16 22.14766 -49.78051 35017 ft 447 kts 237°
2026-05-01 10:17 22.09375 -49.86217 35017 ft 447 kts 237°
2026-05-01 10:17 22.03966 -49.94397 35017 ft 447 kts 237°
2026-05-01 10:18 21.98680 -50.02689 35016 ft 446 kts 240°
2026-05-01 10:19 21.95538 -50.08394 35016 ft 445 kts 241°
2026-05-01 10:19 21.92412 -50.14165 35016 ft 445 kts 242°
2026-05-01 10:20 21.87739 -50.22823 35016 ft 445 kts 242°
2026-05-01 10:20 21.84631 -50.28583 35016 ft 444 kts 242°
2026-05-01 10:21 21.79990 -50.37182 35014 ft 444 kts 242°
2026-05-01 10:22 21.75345 -50.45775 35029 ft 442 kts 242°
2026-05-01 10:23 21.70702 -50.54355 35018 ft 442 kts 242°
2026-05-01 10:23 21.66065 -50.62909 35015 ft 441 kts 242°
2026-05-01 10:24 21.59897 -50.74263 35014 ft 440 kts 242°
2026-05-01 10:25 21.53717 -50.85617 35014 ft 439 kts 242°
2026-05-01 10:26 21.50636 -50.91265 35014 ft 438 kts 242°
2026-05-01 10:27 21.44487 -51.02525 35013 ft 437 kts 242°
2026-05-01 10:28 21.39870 -51.10962 35011 ft 437 kts 242°
2026-05-01 10:28 21.35252 -51.19391 35011 ft 437 kts 242°
2026-05-01 10:29 21.30636 -51.27801 35010 ft 436 kts 242°
2026-05-01 10:30 21.24987 -51.38073 35010 ft 436 kts 242°
2026-05-01 10:31 21.18835 -51.49241 35009 ft 435 kts 242°
2026-05-01 10:32 21.14207 -51.57626 35009 ft 435 kts 243°
2026-05-01 10:33 21.08069 -51.68729 35012 ft 435 kts 243°
2026-05-01 10:34 21.03438 -51.77089 35008 ft 434 kts 243°
2026-05-01 10:34 21.00361 -51.82637 35008 ft 433 kts 243°
2026-05-01 10:35 20.95748 -51.90945 35007 ft 432 kts 243°
2026-05-01 10:35 20.92691 -51.96442 35018 ft 431 kts 243°
2026-05-01 10:36 20.88083 -52.04717 35021 ft 430 kts 243°
2026-05-01 10:37 20.85031 -52.10195 35008 ft 430 kts 243°
2026-05-01 10:37 20.80440 -52.18422 34994 ft 430 kts 243°
2026-05-01 10:38 20.77376 -52.23907 35024 ft 429 kts 243°
2026-05-01 10:38 20.74333 -52.29347 35003 ft 429 kts 243°
2026-05-01 10:39 20.71252 -52.34852 35004 ft 428 kts 243°
2026-05-01 10:39 20.68207 -52.40285 35003 ft 428 kts 243°
2026-05-01 10:40 20.65145 -52.45744 35002 ft 428 kts 243°
2026-05-01 10:40 20.62075 -52.51212 35011 ft 428 kts 243°
2026-05-01 10:41 20.59014 -52.56661 34989 ft 429 kts 243°
2026-05-01 10:42 20.54433 -52.64802 34995 ft 428 kts 243°
2026-05-01 10:42 20.51367 -52.70244 34999 ft 428 kts 243°
2026-05-01 10:43 20.48294 -52.75693 35032 ft 428 kts 243°
2026-05-01 10:43 20.45214 -52.81151 35030 ft 428 kts 243°
2026-05-01 10:44 20.42140 -52.86593 35034 ft 428 kts 243°
2026-05-01 10:44 20.39063 -52.92035 35025 ft 429 kts 243°
2026-05-01 10:45 20.35992 -52.97461 35024 ft 429 kts 243°
2026-05-01 10:45 20.32916 -53.02889 35042 ft 429 kts 243°
2026-05-01 10:46 20.29832 -53.08328 35032 ft 430 kts 243°
2026-05-01 10:46 20.26717 -53.13815 35034 ft 430 kts 243°
2026-05-01 10:47 20.23618 -53.19269 35018 ft 430 kts 243°
2026-05-01 10:47 20.20536 -53.24690 35042 ft 430 kts 243°
2026-05-01 10:48 20.17436 -53.30136 35035 ft 431 kts 243°
2026-05-01 10:48 20.14313 -53.35616 35028 ft 431 kts 243°
2026-05-01 10:49 20.11206 -53.41065 35016 ft 431 kts 243°
2026-05-01 10:49 20.08118 -53.46472 35028 ft 430 kts 243°
2026-05-01 10:50 20.05010 -53.51913 35024 ft 431 kts 243°
2026-05-01 10:50 20.01893 -53.57364 35018 ft 431 kts 243°
2026-05-01 10:51 19.98772 -53.62815 35016 ft 431 kts 243°
2026-05-01 10:51 19.95648 -53.68268 34986 ft 432 kts 243°
2026-05-01 10:52 19.92523 -53.73717 35002 ft 431 kts 243°
2026-05-01 10:52 19.89397 -53.79161 35040 ft 431 kts 243°
2026-05-01 10:53 19.86267 -53.84609 35059 ft 432 kts 243°
2026-05-01 10:53 19.83155 -53.90020 35076 ft 432 kts 243°
2026-05-01 10:54 19.80022 -53.95464 35092 ft 432 kts 243°
2026-05-01 10:54 19.76883 -54.00910 35111 ft 432 kts 243°
2026-05-01 10:55 19.73748 -54.06346 35151 ft 431 kts 243°
2026-05-01 10:55 19.70603 -54.11796 35120 ft 432 kts 243°
2026-05-01 10:56 19.67461 -54.17234 35139 ft 432 kts 243°
2026-05-01 10:56 19.64338 -54.22633 35146 ft 432 kts 243°
2026-05-01 10:57 19.61188 -54.28075 35147 ft 432 kts 243°
2026-05-01 10:57 19.58045 -54.33500 35179 ft 431 kts 243°
2026-05-01 10:58 19.54912 -54.38903 35223 ft 432 kts 243°
2026-05-01 10:58 19.51763 -54.44328 35264 ft 431 kts 243°
2026-05-01 10:59 19.48619 -54.49740 35318 ft 431 kts 243°
2026-05-01 10:59 19.45475 -54.55147 35341 ft 431 kts 243°
2026-05-01 11:00 19.42322 -54.60565 35381 ft 431 kts 242°
2026-05-01 11:00 19.39172 -54.65973 35379 ft 432 kts 242°
2026-05-01 11:01 19.36019 -54.71381 35379 ft 432 kts 242°
2026-05-01 11:01 19.32860 -54.76794 35380 ft 431 kts 242°
2026-05-01 11:02 19.29728 -54.82155 35379 ft 431 kts 242°
2026-05-01 11:02 19.26577 -54.87546 35396 ft 430 kts 242°
2026-05-01 11:03 19.23441 -54.92903 35591 ft 427 kts 242°
2026-05-01 11:03 19.20294 -54.98291 35544 ft 431 kts 242°
2026-05-01 11:04 19.17131 -55.03694 35544 ft 429 kts 240°
2026-05-01 11:04 19.14015 -55.08988 35559 ft 425 kts 240°
2026-05-01 11:05 19.10901 -55.14287 35560 ft 423 kts 240°
2026-05-01 11:05 19.07796 -55.19569 35583 ft 422 kts 240°
2026-05-01 11:06 19.04712 -55.24812 35637 ft 422 kts 240°
2026-05-01 11:06 19.01600 -55.30099 35670 ft 424 kts 240°
2026-05-01 11:07 18.98473 -55.35408 35929 ft 426 kts 239°
2026-05-01 11:07 18.96905 -55.38068 36267 ft 424 kts 239°
2026-05-01 11:07 18.95350 -55.40703 36564 ft 423 kts 239°
2026-05-01 11:07 18.93794 -55.43339 36883 ft 421 kts 239°
2026-05-01 11:08 18.92241 -55.45969 37140 ft 421 kts 239°
2026-05-01 11:08 18.90713 -55.48557 37403 ft 420 kts 239°
2026-05-01 11:08 18.87604 -55.53817 37859 ft 420 kts 239°
2026-05-01 11:09 18.86096 -55.56368 38127 ft 418 kts 239°
2026-05-01 11:09 18.84546 -55.58985 38499 ft 414 kts 239°
2026-05-01 11:09 18.83013 -55.61576 38630 ft 416 kts 239°
2026-05-01 11:10 18.79942 -55.66760 38944 ft 417 kts 239°
2026-05-01 11:10 18.78417 -55.69336 38974 ft 420 kts 239°
2026-05-01 11:10 18.75299 -55.74597 38977 ft 424 kts 239°
2026-05-01 11:11 18.72163 -55.79883 38986 ft 424 kts 239°
2026-05-01 11:11 18.69042 -55.85137 38999 ft 423 kts 239°
2026-05-01 11:12 18.65913 -55.90401 38980 ft 423 kts 239°
2026-05-01 11:12 18.62805 -55.95624 38986 ft 422 kts 239°
2026-05-01 11:13 18.59666 -56.00896 38992 ft 421 kts 239°
2026-05-01 11:13 18.56568 -56.06094 38993 ft 422 kts 238°
2026-05-01 11:14 18.53435 -56.11347 38992 ft 422 kts 238°
2026-05-01 11:14 18.50306 -56.16590 38992 ft 423 kts 238°
2026-05-01 11:15 18.47167 -56.21846 38994 ft 424 kts 238°
2026-05-01 11:15 18.44022 -56.27105 38994 ft 424 kts 238°
2026-05-01 11:16 18.40904 -56.32317 38994 ft 424 kts 238°
2026-05-01 11:16 18.37751 -56.37582 38997 ft 424 kts 238°
2026-05-01 11:17 18.35143 -56.41932 38996 ft 424 kts 238°
2026-05-01 11:17 18.31984 -56.47200 38990 ft 424 kts 238°
2026-05-01 11:18 18.28841 -56.52436 38990 ft 423 kts 238°
2026-05-01 11:18 18.25192 -56.58508 38969 ft 423 kts 238°
2026-05-01 11:19 18.22575 -56.62860 38983 ft 422 kts 238°
2026-05-01 11:19 18.19437 -56.68075 38988 ft 421 kts 238°
2026-05-01 11:20 18.16300 -56.73283 38965 ft 421 kts 238°
2026-05-01 11:20 18.13164 -56.78486 38969 ft 420 kts 238°
2026-05-01 11:21 18.10041 -56.83664 38970 ft 420 kts 238°
2026-05-01 11:21 18.06902 -56.88862 38968 ft 419 kts 238°
2026-05-01 11:22 18.03795 -56.94005 38963 ft 419 kts 238°
2026-05-01 11:22 18.00671 -56.99169 38978 ft 419 kts 238°
2026-05-01 11:23 17.97270 -57.04171 38968 ft 420 kts 236°
2026-05-01 11:23 17.93876 -57.09181 38968 ft 422 kts 236°
2026-05-01 11:24 17.90492 -57.14207 39012 ft 422 kts 236°
2026-05-01 11:25 17.85417 -57.21756 38972 ft 424 kts 236°
2026-05-01 11:25 17.80302 -57.29367 38971 ft 423 kts 236°
2026-05-01 11:26 17.75221 -57.36922 38966 ft 421 kts 236°
2026-05-01 11:27 17.71868 -57.41904 38967 ft 420 kts 236°
2026-05-01 11:27 17.68496 -57.46911 38969 ft 419 kts 236°
2026-05-01 11:28 17.65138 -57.51893 38953 ft 419 kts 236°
2026-05-01 11:28 17.61787 -57.56862 38976 ft 418 kts 236°
2026-05-01 11:29 17.56731 -57.64351 38966 ft 419 kts 236°
2026-05-01 11:30 17.51684 -57.71817 38966 ft 419 kts 236°
2026-05-01 11:30 17.48320 -57.76789 38948 ft 420 kts 236°
2026-05-01 11:31 17.44920 -57.81810 38971 ft 420 kts 236°
2026-05-01 11:31 17.41555 -57.86776 38964 ft 420 kts 236°
2026-05-01 11:32 17.38172 -57.91765 38958 ft 420 kts 236°
2026-05-01 11:32 17.34789 -57.96750 38968 ft 420 kts 236°
2026-05-01 11:33 17.31395 -58.01748 38985 ft 420 kts 236°
2026-05-01 11:33 17.28014 -58.06722 38988 ft 421 kts 236°
2026-05-01 11:34 17.24616 -58.11718 38992 ft 421 kts 236°
2026-05-01 11:34 17.21231 -58.16691 38982 ft 422 kts 236°
2026-05-01 11:35 17.17818 -58.21701 38986 ft 423 kts 236°
2026-05-01 11:35 17.14408 -58.26704 38995 ft 422 kts 236°
2026-05-01 11:36 17.10987 -58.31719 39044 ft 423 kts 236°
2026-05-01 11:36 17.07567 -58.36729 39053 ft 424 kts 236°
2026-05-01 11:37 17.04152 -58.41728 39042 ft 425 kts 236°
2026-05-01 11:37 17.00715 -58.46756 39038 ft 425 kts 236°
2026-05-01 11:38 16.97266 -58.51797 39018 ft 426 kts 236°
2026-05-01 11:38 16.93831 -58.56814 39006 ft 425 kts 236°
2026-05-01 11:39 16.90395 -58.61828 39017 ft 424 kts 236°
2026-05-01 11:39 16.86969 -58.66824 39077 ft 422 kts 236°
2026-05-01 11:39 16.85281 -58.69282 39307 ft 419 kts 236°
2026-05-01 11:40 16.83568 -58.71778 39242 ft 423 kts 236°
2026-05-01 11:40 16.80099 -58.76833 39068 ft 429 kts 236°
2026-05-01 11:41 16.76626 -58.81888 38961 ft 428 kts 236°
2026-05-01 11:41 16.73169 -58.86914 38992 ft 424 kts 236°
2026-05-01 11:42 16.69722 -58.91921 38984 ft 423 kts 236°
2026-05-01 11:42 16.66295 -58.96897 38981 ft 423 kts 236°
2026-05-01 11:43 16.62870 -59.01867 38980 ft 424 kts 236°
2026-05-01 11:43 16.59439 -59.06842 39014 ft 425 kts 236°
2026-05-01 11:44 16.54215 -59.14413 39028 ft 427 kts 236°
2026-05-01 11:44 16.52517 -59.16869 39282 ft 423 kts 236°
2026-05-01 11:44 16.50781 -59.19381 39100 ft 431 kts 236°
2026-05-01 11:45 16.47234 -59.24518 39056 ft 440 kts 236°
2026-05-01 11:45 16.43616 -59.29752 39039 ft 448 kts 236°
2026-05-01 11:46 16.41785 -59.32398 39175 ft 449 kts 236°
2026-05-01 11:46 16.39936 -59.35069 39116 ft 454 kts 236°
2026-05-01 11:46 16.36325 -59.40278 39009 ft 435 kts 236°
2026-05-01 11:47 16.32835 -59.45300 39069 ft 417 kts 237°
2026-05-01 11:47 16.29498 -59.50103 39030 ft 410 kts 237°
2026-05-01 11:48 16.26161 -59.54908 39037 ft 409 kts 237°
2026-05-01 11:48 16.22820 -59.59718 39076 ft 413 kts 237°
2026-05-01 11:49 16.19414 -59.64619 39064 ft 419 kts 237°
2026-05-01 11:49 16.15965 -59.69579 39039 ft 424 kts 237°
2026-05-01 11:50 16.12499 -59.74559 39045 ft 426 kts 237°
2026-05-01 11:50 16.09021 -59.79551 39020 ft 427 kts 237°
2026-05-01 11:51 16.07303 -59.82009 39283 ft 420 kts 237°
2026-05-01 11:51 16.05561 -59.84506 39098 ft 426 kts 237°
2026-05-01 11:51 16.02070 -59.89517 39001 ft 426 kts 237°
2026-05-01 11:52 15.98608 -59.94477 38991 ft 425 kts 237°
2026-05-01 11:52 15.95142 -59.99438 38963 ft 424 kts 237°
2026-05-01 11:53 15.91675 -60.04396 38988 ft 423 kts 237°
2026-05-01 11:53 15.88204 -60.09358 39032 ft 424 kts 237°
2026-05-01 11:54 15.84731 -60.14321 38987 ft 426 kts 237°
2026-05-01 11:54 15.81241 -60.19303 38979 ft 426 kts 237°
2026-05-01 11:55 15.77772 -60.24252 38984 ft 427 kts 237°
2026-05-01 11:55 15.74288 -60.29219 38994 ft 427 kts 237°
2026-05-01 11:56 15.70783 -60.34213 38987 ft 427 kts 237°
2026-05-01 11:56 15.67280 -60.39200 38993 ft 427 kts 237°
2026-05-01 11:57 15.64369 -60.43342 38999 ft 426 kts 237°
2026-05-01 11:57 15.60303 -60.49123 38994 ft 426 kts 237°
2026-05-01 11:58 15.56799 -60.54102 38984 ft 426 kts 237°
2026-05-01 11:59 15.51582 -60.61507 39039 ft 425 kts 237°
2026-05-01 11:59 15.48093 -60.66459 39032 ft 426 kts 237°
2026-05-01 12:00 15.42860 -60.73876 39119 ft 425 kts 237°
2026-05-01 12:01 15.37603 -60.81320 39157 ft 426 kts 237°
2026-05-01 12:01 15.34119 -60.86249 39197 ft 425 kts 237°
2026-05-01 12:02 15.30613 -60.91206 39189 ft 426 kts 237°
2026-05-01 12:02 15.27701 -60.95320 39212 ft 426 kts 237°
2026-05-01 12:03 15.24181 -61.00295 39032 ft 428 kts 237°
2026-05-01 12:03 15.20693 -61.05216 38985 ft 424 kts 237°
2026-05-01 12:04 15.17204 -61.10135 38985 ft 421 kts 237°
2026-05-01 12:04 15.13738 -61.15020 38990 ft 420 kts 237°
2026-05-01 12:05 15.10270 -61.19905 38993 ft 420 kts 237°
2026-05-01 12:05 15.05081 -61.27210 39002 ft 423 kts 237°
2026-05-01 12:06 15.01584 -61.32130 38961 ft 425 kts 238°
2026-05-01 12:06 14.98076 -61.37061 38969 ft 426 kts 238°
2026-05-01 12:07 14.94578 -61.41976 38976 ft 426 kts 238°
2026-05-01 12:07 14.91076 -61.46891 39008 ft 425 kts 237°
2026-05-01 12:08 14.87557 -61.51829 38969 ft 426 kts 237°
2026-05-01 12:08 14.84025 -61.56779 38981 ft 426 kts 238°
2026-05-01 12:09 14.80513 -61.61701 39016 ft 425 kts 238°
2026-05-01 12:09 14.77016 -61.66599 38967 ft 427 kts 238°
2026-05-01 12:10 14.71734 -61.73990 38964 ft 427 kts 238°
2026-05-01 12:11 14.66441 -61.81388 38976 ft 426 kts 238°
2026-05-01 12:11 14.62938 -61.86282 38981 ft 426 kts 238°
2026-05-01 12:12 14.59383 -61.91244 38982 ft 427 kts 238°
2026-05-01 12:12 14.55871 -61.96144 38969 ft 428 kts 238°
2026-05-01 12:13 14.52335 -62.01075 38958 ft 428 kts 238°
2026-05-01 12:13 14.48792 -62.06011 38970 ft 428 kts 238°
2026-05-01 12:14 14.45251 -62.10942 38974 ft 427 kts 238°
2026-05-01 12:14 14.41702 -62.15881 38970 ft 427 kts 238°
2026-05-01 12:15 14.38186 -62.20771 39042 ft 425 kts 238°
2026-05-01 12:15 14.34636 -62.25706 39004 ft 427 kts 238°
2026-05-01 12:16 14.31105 -62.30612 38984 ft 428 kts 238°
2026-05-01 12:16 14.27550 -62.35548 38989 ft 428 kts 238°
2026-05-01 12:17 14.23990 -62.40486 38988 ft 428 kts 238°
2026-05-01 12:17 14.20440 -62.45410 38968 ft 428 kts 238°
2026-05-01 12:18 14.16887 -62.50334 38963 ft 427 kts 238°
2026-05-01 12:18 14.13341 -62.55244 38985 ft 427 kts 238°
2026-05-01 12:19 14.09817 -62.60122 38989 ft 427 kts 238°
2026-05-01 12:19 14.06262 -62.65041 38991 ft 427 kts 238°
2026-05-01 12:20 14.02694 -62.69974 38960 ft 428 kts 238°
2026-05-01 12:20 13.99132 -62.74896 38933 ft 429 kts 238°
2026-05-01 12:21 13.95560 -62.79829 38957 ft 429 kts 238°
2026-05-01 12:21 13.92016 -62.84721 38980 ft 429 kts 238°
2026-05-01 12:22 13.88442 -62.89652 38955 ft 431 kts 237°
2026-05-01 12:22 13.84841 -62.94615 39015 ft 431 kts 238°
2026-05-01 12:23 13.81250 -62.99563 38960 ft 433 kts 238°
2026-05-01 12:23 13.77636 -63.04539 38955 ft 433 kts 237°
2026-05-01 12:24 13.74045 -63.09481 38988 ft 431 kts 237°
2026-05-01 12:24 13.70453 -63.14420 38970 ft 432 kts 238°
2026-05-01 12:25 13.65054 -63.21840 38989 ft 431 kts 238°
2026-05-01 12:26 13.61467 -63.26767 38958 ft 432 kts 238°
2026-05-01 12:26 13.56066 -63.34178 38972 ft 432 kts 238°
2026-05-01 12:27 13.50642 -63.41616 38957 ft 432 kts 238°
2026-05-01 12:28 13.45262 -63.48986 38981 ft 432 kts 237°
2026-05-01 12:29 13.39852 -63.56391 38958 ft 433 kts 237°
2026-05-01 12:29 13.34422 -63.63818 38966 ft 432 kts 237°
2026-05-01 12:30 13.29027 -63.71190 38990 ft 432 kts 237°
2026-05-01 12:31 13.25401 -63.76141 38955 ft 433 kts 237°
2026-05-01 12:31 13.21789 -63.81071 38940 ft 433 kts 237°
2026-05-01 12:32 13.18160 -63.86020 38945 ft 433 kts 237°
2026-05-01 12:32 13.12728 -63.93426 38957 ft 433 kts 237°
2026-05-01 12:33 13.09101 -63.98365 38945 ft 433 kts 237°
2026-05-01 12:33 13.05471 -64.03307 38950 ft 433 kts 237°
2026-05-01 12:34 13.01847 -64.08238 38938 ft 434 kts 237°
2026-05-01 12:34 12.98226 -64.13162 38939 ft 434 kts 237°
2026-05-01 12:35 12.94585 -64.18111 38941 ft 435 kts 237°
2026-05-01 12:35 12.90937 -64.23066 38937 ft 435 kts 237°
2026-05-01 12:36 12.87302 -64.27999 38967 ft 434 kts 237°
2026-05-01 12:36 12.83655 -64.32950 38947 ft 434 kts 237°
2026-05-01 12:37 12.80027 -64.37869 38934 ft 435 kts 237°
2026-05-01 12:37 12.76394 -64.42793 38923 ft 435 kts 237°
2026-05-01 12:38 12.72720 -64.47770 38953 ft 434 kts 237°
2026-05-01 12:38 12.69084 -64.52693 38938 ft 435 kts 237°
2026-05-01 12:39 12.65428 -64.57641 38934 ft 435 kts 237°
2026-05-01 12:39 12.61778 -64.62576 38964 ft 435 kts 237°
2026-05-01 12:40 12.58144 -64.67489 38963 ft 436 kts 237°
2026-05-01 12:40 12.54485 -64.72432 38919 ft 437 kts 237°
2026-05-01 12:41 12.50821 -64.77380 38984 ft 435 kts 237°
2026-05-01 12:41 12.47142 -64.82345 38947 ft 436 kts 237°
2026-05-01 12:42 12.43476 -64.87291 38930 ft 437 kts 237°
2026-05-01 12:42 12.39808 -64.92236 38940 ft 437 kts 237°
2026-05-01 12:43 12.36123 -64.97202 38931 ft 437 kts 237°
2026-05-01 12:43 12.32464 -65.02129 38936 ft 437 kts 237°
2026-05-01 12:44 12.28798 -65.07064 38935 ft 438 kts 237°
2026-05-01 12:45 12.21417 -65.16992 38962 ft 439 kts 237°
2026-05-01 12:45 12.17714 -65.21968 38952 ft 440 kts 237°
2026-05-01 12:46 12.13998 -65.26962 38916 ft 441 kts 237°
2026-05-01 12:46 12.10282 -65.31950 38926 ft 441 kts 237°
2026-05-01 12:47 12.07202 -65.36083 38952 ft 441 kts 237°
2026-05-01 12:47 12.02872 -65.41891 38949 ft 441 kts 237°
2026-05-01 12:48 11.99152 -65.46878 38977 ft 441 kts 237°
2026-05-01 12:48 11.95418 -65.51881 38949 ft 443 kts 237°
2026-05-01 12:49 11.92281 -65.56083 38928 ft 444 kts 237°
2026-05-01 12:49 11.88540 -65.61091 38917 ft 445 kts 237°
2026-05-01 12:50 11.84777 -65.66125 38928 ft 445 kts 237°
2026-05-01 12:50 11.81030 -65.71135 38923 ft 445 kts 237°
2026-05-01 12:51 11.77296 -65.76125 38914 ft 445 kts 237°
2026-05-01 12:52 11.71656 -65.83658 38957 ft 444 kts 237°
2026-05-01 12:52 11.66030 -65.91165 38939 ft 444 kts 237°
2026-05-01 12:53 11.60399 -65.98676 38933 ft 444 kts 237°
2026-05-01 12:54 11.56637 -66.03689 38932 ft 445 kts 237°
2026-05-01 12:54 11.51015 -66.11178 38945 ft 445 kts 237°
2026-05-01 12:55 11.45501 -66.18814 38914 ft 442 kts 245°
2026-05-01 12:56 11.42550 -66.24261 38923 ft 441 kts 245°
2026-05-01 12:56 11.39680 -66.29808 38929 ft 441 kts 246°
2026-05-01 12:57 11.36848 -66.35347 38943 ft 441 kts 246°
2026-05-01 12:57 11.32605 -66.43671 38969 ft 442 kts 246°
2026-05-01 12:58 11.29766 -66.49246 38933 ft 443 kts 245°
2026-05-01 12:59 11.25528 -66.57566 38929 ft 443 kts 245°
2026-05-01 12:59 11.21277 -66.65911 38937 ft 443 kts 245°
2026-05-01 13:00 11.17006 -66.74290 38938 ft 443 kts 245°
2026-05-01 13:01 11.12741 -66.82651 38931 ft 444 kts 245°
2026-05-01 13:02 11.08490 -66.90977 38961 ft 444 kts 245°
2026-05-01 13:07 10.76950 -67.52529 38967 ft 445 kts 245°
2026-05-01 13:08 10.74080 -67.58110 38959 ft 444 kts 245°
2026-05-01 13:08 10.71244 -67.63621 38992 ft 443 kts 245°
2026-05-01 13:09 10.68373 -67.69198 38987 ft 443 kts 245°
2026-05-01 13:09 10.65523 -67.74732 38983 ft 444 kts 245°
2026-05-01 13:10 10.62656 -67.80297 38994 ft 445 kts 245°
2026-05-01 13:10 10.59783 -67.85870 39009 ft 446 kts 245°
2026-05-01 13:11 10.56888 -67.91483 39004 ft 447 kts 245°
2026-05-01 13:11 10.54007 -67.97064 39022 ft 447 kts 245°
2026-05-01 13:12 10.51105 -68.02687 39033 ft 447 kts 245°
2026-05-01 13:12 10.48196 -68.08239 39002 ft 450 kts 241°
2026-05-01 13:13 10.44246 -68.13168 39047 ft 452 kts 233°
2026-05-01 13:13 10.40164 -68.18080 38992 ft 453 kts 232°
2026-05-01 13:14 10.36074 -68.22941 39016 ft 452 kts 232°
2026-05-01 13:14 10.32006 -68.27762 38980 ft 452 kts 232°
2026-05-01 13:15 10.27903 -68.32619 39016 ft 451 kts 232°
2026-05-01 13:15 10.23826 -68.37440 39023 ft 451 kts 232°
2026-05-01 13:16 10.19723 -68.42291 39002 ft 452 kts 232°
2026-05-01 13:16 10.15622 -68.47135 39003 ft 452 kts 232°
2026-05-01 13:17 10.07413 -68.56827 39001 ft 452 kts 232°
2026-05-01 13:18 10.01305 -68.64031 39059 ft 450 kts 232°
2026-05-01 13:18 9.99224 -68.66484 39190 ft 448 kts 232°
2026-05-01 13:18 9.97225 -68.68845 39048 ft 452 kts 232°
2026-05-01 13:19 9.95176 -68.71260 39151 ft 450 kts 232°
2026-05-01 13:19 9.93098 -68.73708 39056 ft 452 kts 232°
2026-05-01 13:20 9.86956 -68.80940 39016 ft 453 kts 232°
2026-05-01 13:20 9.82860 -68.85762 39009 ft 453 kts 232°
2026-05-01 13:21 9.76694 -68.93015 39001 ft 454 kts 231°
2026-05-01 13:21 9.72549 -68.97887 38976 ft 455 kts 231°
2026-05-01 13:22 9.68414 -69.02746 39010 ft 455 kts 231°
2026-05-01 13:22 9.64271 -69.07613 39015 ft 455 kts 231°
2026-05-01 13:23 9.60163 -69.12434 39068 ft 454 kts 231°
2026-05-01 13:23 9.56036 -69.17278 39088 ft 455 kts 231°
2026-05-01 13:24 9.53965 -69.19708 39197 ft 453 kts 231°
2026-05-01 13:24 9.51892 -69.22139 39278 ft 453 kts 231°
2026-05-01 13:25 9.45674 -69.29430 39235 ft 457 kts 231°
2026-05-01 13:25 9.41499 -69.34323 39207 ft 458 kts 231°
2026-05-01 13:26 9.37327 -69.39208 39203 ft 457 kts 231°
2026-05-01 13:26 9.33206 -69.44034 39211 ft 456 kts 231°
2026-05-01 13:27 9.29026 -69.48926 39212 ft 457 kts 231°
2026-05-01 13:27 9.22821 -69.56185 39280 ft 456 kts 231°
2026-05-01 13:28 9.16567 -69.63496 39394 ft 456 kts 231°
2026-05-01 13:29 9.08267 -69.73193 39400 ft 458 kts 231°
2026-05-01 13:31 8.95800 -69.87743 39598 ft 453 kts 231°
2026-05-01 13:31 8.89605 -69.94968 39750 ft 455 kts 231°
2026-05-01 13:32 8.85452 -69.99810 39822 ft 457 kts 231°
2026-05-01 13:33 8.74941 -70.12053 39896 ft 460 kts 231°
2026-05-01 13:34 8.66544 -70.21825 39881 ft 461 kts 231°
2026-05-01 13:35 8.60946 -70.28336 39877 ft 460 kts 231°
2026-05-01 13:35 8.56052 -70.34026 39743 ft 463 kts 231°
2026-05-01 13:36 8.54637 -70.35671 39710 ft 463 kts 231°
2026-05-01 13:36 8.51845 -70.38913 39948 ft 456 kts 231°
2026-05-01 13:36 8.48368 -70.42952 39965 ft 456 kts 231°
2026-05-01 13:37 8.44209 -70.47784 39960 ft 458 kts 231°
2026-05-01 13:37 8.40019 -70.52648 39954 ft 459 kts 231°
2026-05-01 13:38 8.33715 -70.59964 39954 ft 461 kts 231°
2026-05-01 13:39 8.29524 -70.64824 40004 ft 460 kts 231°
2026-05-01 13:39 8.25345 -70.69668 40243 ft 455 kts 231°
2026-05-01 13:39 8.23269 -70.72074 40361 ft 455 kts 231°
2026-05-01 13:40 8.21179 -70.74497 40412 ft 457 kts 231°
2026-05-01 13:40 8.16968 -70.79378 40258 ft 464 kts 231°
2026-05-01 13:40 8.14840 -70.81841 40106 ft 468 kts 231°
2026-05-01 13:41 8.12689 -70.84333 40109 ft 466 kts 231°
2026-05-01 13:41 8.08453 -70.89236 40148 ft 463 kts 231°
2026-05-01 13:41 8.06316 -70.91710 40031 ft 464 kts 231°
2026-05-01 13:42 8.04223 -70.94133 40000 ft 464 kts 230°
2026-05-01 13:42 7.99997 -70.99022 39957 ft 462 kts 230°
2026-05-01 13:43 7.95771 -71.03911 39980 ft 460 kts 230°
2026-05-01 13:43 7.91568 -71.08769 39968 ft 462 kts 230°
2026-05-01 13:44 7.87335 -71.13662 40012 ft 463 kts 230°
2026-05-01 13:44 7.83095 -71.18560 39968 ft 466 kts 230°
2026-05-01 13:45 7.78820 -71.23499 39980 ft 468 kts 230°
2026-05-01 13:45 7.74530 -71.28451 39979 ft 469 kts 230°
2026-05-01 13:46 7.70234 -71.33409 40017 ft 469 kts 230°
2026-05-01 13:46 7.65983 -71.38315 40037 ft 469 kts 230°
2026-05-01 13:46 7.63810 -71.40819 40354 ft 463 kts 230°
2026-05-01 13:47 7.61712 -71.43240 40147 ft 470 kts 230°
2026-05-01 13:47 7.57407 -71.48205 40171 ft 468 kts 230°
2026-05-01 13:48 7.53123 -71.53143 40273 ft 467 kts 230°
2026-05-01 13:48 7.50960 -71.55636 40103 ft 471 kts 230°
2026-05-01 13:48 7.48833 -71.58087 40004 ft 472 kts 230°
2026-05-01 13:49 7.44484 -71.63096 39984 ft 470 kts 230°
2026-05-01 13:49 7.40215 -71.68010 39975 ft 468 kts 230°
2026-05-01 13:49 7.38052 -71.70501 39738 ft 473 kts 230°
2026-05-01 13:50 7.35887 -71.72994 39494 ft 478 kts 230°
2026-05-01 13:50 7.33681 -71.75533 39272 ft 481 kts 229°
2026-05-01 13:50 7.31480 -71.78066 39089 ft 483 kts 229°
2026-05-01 13:50 7.29272 -71.80607 38900 ft 484 kts 229°
2026-05-01 13:51 7.27057 -71.83155 38685 ft 486 kts 229°
2026-05-01 13:51 7.24796 -71.85755 38555 ft 485 kts 229°
2026-05-01 13:51 7.22569 -71.88315 38365 ft 486 kts 229°
2026-05-01 13:51 7.20371 -71.90842 38172 ft 487 kts 229°
2026-05-01 13:52 7.18139 -71.93407 37959 ft 488 kts 229°
2026-05-01 13:52 7.15906 -71.95975 37771 ft 489 kts 229°
2026-05-01 13:52 7.13659 -71.98556 37633 ft 488 kts 229°
2026-05-01 13:52 7.11405 -72.01146 37387 ft 490 kts 229°
2026-05-01 13:53 7.09153 -72.03734 37146 ft 493 kts 229°
2026-05-01 13:53 7.04611 -72.08950 36651 ft 498 kts 229°
2026-05-01 13:53 7.02354 -72.11542 36458 ft 498 kts 229°
2026-05-01 13:54 7.00092 -72.14139 36608 ft 492 kts 229°
2026-05-01 13:54 6.97814 -72.16753 36479 ft 495 kts 229°
2026-05-01 13:54 6.95529 -72.19376 36272 ft 499 kts 229°
2026-05-01 13:54 6.93258 -72.21983 36154 ft 500 kts 229°
2026-05-01 13:55 6.90944 -72.24636 35879 ft 504 kts 229°
2026-05-01 13:55 6.88639 -72.27281 35765 ft 502 kts 229°
2026-05-01 13:55 6.86329 -72.29930 35582 ft 503 kts 229°
2026-05-01 13:55 6.84019 -72.32579 35385 ft 503 kts 229°
2026-05-01 13:56 6.81691 -72.35249 35108 ft 505 kts 229°
2026-05-01 13:56 6.79377 -72.37902 34861 ft 505 kts 229°
2026-05-01 13:56 6.77056 -72.40562 34611 ft 506 kts 229°
2026-05-01 13:56 6.74772 -72.43180 34366 ft 507 kts 229°
2026-05-01 13:57 6.72442 -72.45850 34227 ft 505 kts 229°
2026-05-01 13:57 6.70143 -72.48483 34335 ft 499 kts 229°
2026-05-01 13:57 6.67859 -72.51099 34588 ft 494 kts 229°
2026-05-01 13:57 6.65598 -72.53689 34425 ft 501 kts 229°
2026-05-01 13:58 6.60992 -72.58963 34352 ft 506 kts 229°
2026-05-01 13:58 6.56294 -72.64341 34218 ft 510 kts 229°
2026-05-01 13:59 6.53965 -72.67007 34078 ft 512 kts 229°
2026-05-01 13:59 6.51608 -72.69703 33841 ft 514 kts 229°
2026-05-01 13:59 6.49238 -72.72414 33587 ft 515 kts 229°
2026-05-01 13:59 6.46887 -72.75105 33340 ft 514 kts 229°
2026-05-01 14:00 6.44534 -72.77795 33185 ft 512 kts 229°
2026-05-01 14:00 6.42175 -72.80493 33085 ft 509 kts 229°
2026-05-01 14:00 6.37569 -72.85759 33342 ft 495 kts 229°
2026-05-01 14:01 6.35350 -72.88295 34439 ft 474 kts 229°
2026-05-01 14:01 6.33194 -72.90759 35252 ft 462 kts 229°
2026-05-01 14:01 6.31050 -72.93208 35690 ft 461 kts 229°
2026-05-01 14:01 6.28915 -72.95649 35558 ft 473 kts 229°
2026-05-01 14:02 6.26738 -72.98136 35231 ft 485 kts 229°
2026-05-01 14:02 6.24457 -73.00742 34931 ft 493 kts 229°
2026-05-01 14:02 6.22180 -73.03343 34626 ft 498 kts 229°
2026-05-01 14:02 6.19876 -73.05973 34328 ft 502 kts 229°
2026-05-01 14:03 6.17591 -73.08582 34036 ft 504 kts 229°
2026-05-01 14:03 6.15279 -73.11221 33822 ft 503 kts 229°
2026-05-01 14:03 6.10745 -73.16394 34398 ft 480 kts 229°
2026-05-01 14:04 6.08597 -73.18845 35262 ft 463 kts 229°
2026-05-01 14:04 6.06442 -73.21304 35429 ft 468 kts 229°
2026-05-01 14:04 6.02855 -73.25398 35314 ft 474 kts 229°
2026-05-01 14:05 5.99945 -73.28716 35143 ft 473 kts 229°
2026-05-01 14:05 5.97776 -73.31189 34937 ft 468 kts 230°
2026-05-01 14:05 5.95630 -73.33636 34583 ft 464 kts 230°
2026-05-01 14:05 5.93520 -73.36040 34283 ft 458 kts 230°
2026-05-01 14:06 5.91401 -73.38458 33542 ft 463 kts 230°
2026-05-01 14:06 5.89257 -73.40903 32887 ft 465 kts 230°
2026-05-01 14:06 5.87107 -73.43355 32230 ft 466 kts 229°
2026-05-01 14:06 5.85015 -73.45844 31621 ft 465 kts 234°
2026-05-01 14:07 5.83108 -73.48489 30885 ft 468 kts 235°
2026-05-01 14:07 5.81233 -73.51099 30302 ft 468 kts 234°
2026-05-01 14:07 5.79361 -73.53705 30165 ft 457 kts 234°
2026-05-01 14:08 5.75807 -73.58646 31400 ft 418 kts 235°
2026-05-01 14:08 5.74054 -73.61065 30764 ft 439 kts 234°
2026-05-01 14:08 5.72206 -73.63639 29878 ft 460 kts 235°
2026-05-01 14:08 5.70372 -73.66202 29637 ft 455 kts 234°
2026-05-01 14:09 5.68551 -73.68742 29652 ft 445 kts 234°
2026-05-01 14:09 5.66732 -73.71282 29229 ft 450 kts 235°
2026-05-01 14:09 5.64882 -73.73864 28696 ft 454 kts 234°
2026-05-01 14:09 5.63050 -73.76421 28205 ft 453 kts 234°
2026-05-01 14:10 5.61223 -73.78970 27762 ft 449 kts 234°
2026-05-01 14:10 5.59373 -73.81550 27179 ft 449 kts 234°
2026-05-01 14:10 5.57543 -73.84103 26599 ft 448 kts 234°
2026-05-01 14:10 5.55764 -73.86585 25888 ft 450 kts 234°
2026-05-01 14:11 5.53927 -73.89146 25215 ft 451 kts 234°
2026-05-01 14:11 5.50272 -73.94244 24086 ft 447 kts 234°
2026-05-01 14:11 5.48473 -73.96751 23711 ft 440 kts 234°
2026-05-01 14:12 5.46690 -73.99240 23243 ft 436 kts 234°
2026-05-01 14:12 5.44931 -74.01693 22842 ft 430 kts 234°
2026-05-01 14:12 5.43204 -74.04102 22316 ft 427 kts 234°
2026-05-01 14:12 5.41484 -74.06502 21943 ft 420 kts 234°
2026-05-01 14:13 5.39787 -74.08841 21773 ft 409 kts 231°
2026-05-01 14:13 5.38523 -74.10198 21630 ft 402 kts 221°
2026-05-01 14:13 5.35458 -74.12276 21225 ft 391 kts 212°
2026-05-01 14:13 5.33225 -74.13743 21034 ft 382 kts 212°
2026-05-01 14:14 5.31001 -74.15210 20687 ft 377 kts 212°
2026-05-01 14:14 5.28836 -74.16638 20373 ft 371 kts 212°
2026-05-01 14:14 5.26693 -74.18054 20130 ft 363 kts 212°
2026-05-01 14:14 5.24606 -74.19434 19944 ft 354 kts 212°
2026-05-01 14:15 5.22571 -74.20778 19689 ft 348 kts 212°
2026-05-01 14:15 5.20569 -74.22101 19385 ft 343 kts 212°
2026-05-01 14:15 5.18586 -74.23415 19117 ft 336 kts 212°
2026-05-01 14:15 5.16634 -74.24706 18735 ft 334 kts 212°
2026-05-01 14:16 5.14705 -74.25985 18288 ft 333 kts 212°
2026-05-01 14:16 5.12758 -74.27278 17838 ft 333 kts 212°
2026-05-01 14:16 5.10890 -74.28521 17812 ft 319 kts 212°
2026-05-01 14:16 5.09033 -74.29753 17655 ft 311 kts 212°
2026-05-01 14:17 5.07291 -74.30910 17565 ft 303 kts 212°
2026-05-01 14:17 5.05549 -74.32065 17328 ft 299 kts 212°
2026-05-01 14:17 5.03829 -74.33208 17121 ft 292 kts 212°
2026-05-01 14:17 5.02140 -74.34330 16843 ft 288 kts 212°
2026-05-01 14:18 5.00490 -74.35428 16584 ft 283 kts 212°
2026-05-01 14:18 4.98847 -74.36521 16239 ft 281 kts 212°
2026-05-01 14:18 4.97225 -74.37601 15849 ft 281 kts 212°
2026-05-01 14:18 4.96147 -74.38319 15658 ft 279 kts 212°
2026-05-01 14:19 4.93995 -74.39738 15160 ft 278 kts 208°
2026-05-01 14:19 4.92173 -74.40333 14822 ft 273 kts 183°
2026-05-01 14:19 4.90335 -74.40093 14208 ft 265 kts 158°
2026-05-01 14:19 4.88840 -74.39051 13708 ft 270 kts 130°
2026-05-01 14:20 4.87834 -74.37473 13493 ft 263 kts 122°
2026-05-01 14:20 4.85788 -74.34522 13080 ft 250 kts 126°
2026-05-01 14:20 4.84777 -74.33123 12866 ft 246 kts 126°
2026-05-01 14:21 4.83769 -74.31734 12530 ft 247 kts 127°
2026-05-01 14:21 4.82735 -74.30334 12195 ft 247 kts 127°
2026-05-01 14:21 4.81721 -74.28973 11878 ft 242 kts 127°
2026-05-01 14:22 4.79760 -74.26360 11241 ft 229 kts 127°
2026-05-01 14:22 4.78817 -74.25108 10890 ft 221 kts 127°
2026-05-01 14:22 4.78194 -74.24282 10662 ft 216 kts 127°
2026-05-01 14:22 4.77305 -74.23125 10367 ft 205 kts 127°
2026-05-01 14:23 4.76481 -74.22026 10251 ft 185 kts 126°
2026-05-01 14:23 4.75720 -74.21013 9987 ft 185 kts 126°
2026-05-01 14:23 4.75000 -74.20060 9717 ft 181 kts 126°
2026-05-01 14:23 4.74257 -74.19075 9576 ft 171 kts 125°
2026-05-01 14:24 4.73534 -74.18117 9353 ft 173 kts 125°
2026-05-01 14:24 4.72811 -74.17158 9041 ft 175 kts 126°
2026-05-01 14:24 4.72078 -74.16188 8733 ft 172 kts 127°
2026-05-01 14:24 4.71362 -74.15248 8421 ft 169 kts 127°
2026-05-01 14:25 4.70720 -74.14390 8378 ft 130 kts 127°
2026-05-01 14:25 4.70290 -74.13814 8378 ft 76 kts 127°
2026-05-01 14:25 4.70125 -74.13594 8377 ft 23 kts 128°
2026-05-01 14:25 4.70035 -74.13479 8377 ft 19 kts 127°
2026-05-01 14:26 4.69963 -74.13383 8377 ft 16 kts 127°
2026-05-01 14:26 4.69797 -74.13307 8377 ft 12 kts 171°
2026-05-01 14:26 4.69721 -74.13295 8377 ft 11 kts 171°
2026-05-01 14:27 4.69651 -74.13283 8377 ft 10 kts 169°
2026-05-01 14:27 4.69587 -74.13275 8377 ft 9 kts 193°
2026-05-01 14:27 4.69582 -74.13317 8377 ft 7 kts 302°
2026-05-01 14:28 4.69639 -74.13397 8377 ft 7 kts 306°
2026-05-01 14:28 4.69669 -74.13438 8377 ft 7 kts 308°
2026-05-01 14:28 4.69709 -74.13491 8377 ft 12 kts 305°
2026-05-01 14:28 4.69775 -74.13579 8377 ft 18 kts 307°
2026-05-01 14:29 4.69854 -74.13685 8377 ft 19 kts 307°
2026-05-01 14:29 4.69935 -74.13792 8377 ft 18 kts 307°
2026-05-01 14:30 4.69850 -74.13923 8377 ft 0 kts 205°
2026-05-01 14:30 4.69850 -74.13924 8377 ft 0 kts 205°